#timestamp,LO_Frequency,Hit,StdDev 
1650189615.0,286046999.3,N
1650189615.9,286046999.3,N
1650189635.8,286046997.4,N
1650189655.6,286046997.2,N
1650189675.4,286046994.9,N
1650189695.3,286046999.3,N
1650189715.1,286046998.9,N
1650189735.9,286046996.5,N
1650189755.7,286046999.6,N
1650189775.5,286046998.9,N
1650189795.4,286046997.7,N
1650189815.2,286046996.8,N
1650189835.0,286046996.3,N
1650189835.9,286046996.3,N
1650189855.8,286046993.6,Y
1650189875.6,286046998.6,P
1650189895.5,286046998.5,N
1650189915.3,286047001.0,N
1650189935.1,286047001.0,N
1650189955.9,286046998.7,N
1650189975.7,286047001.2,N
1650189995.5,286046998.3,N
1650190015.4,286046996.9,N
1650190035.2,286046996.8,N
1650190055.1,286046996.5,N
1650190056.0,286046996.5,N
1650190075.8,286046998.1,N
1650190095.6,286047001.2,N
1650190115.5,286047000.0,N
1650190135.3,286047001.0,N
1650190155.1,286046999.3,N
1650190175.9,286046998.2,N
1650190195.7,286047000.3,N
1650190215.6,286047000.3,N
1650190235.4,286047000.5,N
1650190255.2,286046998.9,N
1650190275.1,286046997.0,N
1650190276.0,286046997.0,N
1650190295.8,286046998.1,N
1650190315.6,286046998.9,N
1650190335.5,286046998.8,N
1650190355.3,286046999.6,N
1650190375.2,286046996.6,N
1650190395.9,286046999.6,N
1650190415.7,286047001.2,N
1650190435.6,286046998.8,N
1650190455.4,286046996.5,N
1650190475.2,286046998.5,N
1650190495.1,286046998.2,N
1650190496.0,286046998.2,N
1650190515.8,286047000.5,N
1650190535.7,286047001.2,N
1650190555.5,286047001.0,N
1650190575.3,286047001.1,N
1650190595.2,286047000.8,N
1650190615.0,286046999.1,N
1650190615.9,286046999.1,N
1650190635.8,286046996.6,N
1650190655.6,286046999.4,N
1650190675.4,286046999.2,N
1650190695.3,286046999.4,N
1650190715.1,286046997.8,N
1650190735.8,286046997.8,N
1650190755.7,286046999.4,N
1650190775.5,286046998.5,N
1650190795.3,286046997.4,N
1650190815.2,286046997.7,N
1650190835.0,286046998.9,N
1650190835.9,286046998.9,N
1650190855.8,286046997.9,N
1650190875.6,286046994.9,Y
1650190895.4,286046996.7,P
1650190915.3,286046997.0,N
1650190935.1,286046999.2,N
1650190955.9,286046998.8,N
1650190975.7,286047000.2,N
1650190995.5,286047000.8,N
1650191015.4,286046998.6,N
1650191035.2,286046999.0,N
1650191055.0,286046998.4,N
1650191055.9,286046998.4,N
1650191075.8,286046997.0,N
1650191095.6,286046999.2,N
1650191115.5,286046999.5,N
1650191135.3,286046998.4,N
1650191155.1,286047001.1,N
1650191175.9,286046997.4,N
1650191195.7,286046995.4,Y
1650191215.5,286046999.1,P
1650191235.4,286046998.6,P
1650191255.2,286046998.5,P
1650191275.1,286047000.3,N
1650191276.0,286047000.3,N
1650191295.8,286047002.0,N
1650191315.6,286046998.3,N
1650191335.5,286046998.3,N
1650191355.3,286047001.2,N
1650191375.1,286047002.3,N
1650191395.9,286047000.2,N
1650191415.7,286047001.7,N
1650191435.6,286047001.7,N
1650191455.4,286047004.4,Y
1650191475.2,286047002.1,P
1650191495.1,286047001.5,N
1650191496.0,286047001.5,N
1650191515.8,286047002.6,Y
1650191535.7,286047001.0,P
1650191555.5,286047001.0,P
1650191575.3,286047001.2,P
1650191595.2,286046998.5,Y
1650191615.0,286046997.0,P
1650191615.9,286046997.0,N
1650191635.8,286046997.1,N
1650191655.6,286046997.1,N
1650191675.4,286046997.3,N
1650191695.3,286046998.7,N
1650191715.1,286046998.7,N
1650191735.9,286047000.5,N
1650191755.7,286047001.1,N
1650191775.5,286047001.2,N
1650191795.4,286047000.6,N
1650191815.2,286047000.9,N
1650191835.0,286047000.7,N
1650191835.9,286047000.7,N
1650191855.8,286047001.2,N
1650191875.6,286046998.6,N
1650191895.5,286047001.0,N
1650191915.3,286046999.8,N
1650191935.1,286047002.3,N
1650191955.9,286047002.0,N
1650191975.7,286047001.9,N
1650191995.5,286046999.7,N
1650192015.4,286046999.8,N
1650192035.2,286047000.5,N
1650192055.1,286047000.1,N
1650192056.0,286047000.1,N
1650192075.8,286047000.4,N
1650192095.6,286046998.5,N
1650192115.5,286046999.7,N
1650192135.3,286047000.3,N
1650192155.2,286046998.1,N
1650192175.9,286046997.7,N
1650192195.7,286046995.8,N
1650192215.6,286046996.4,N
1650192235.4,286046995.8,N
1650192255.2,286046996.7,N
1650192275.1,286046999.0,N
1650192276.0,286046999.0,N
1650192295.8,286046999.8,N
1650192315.7,286047001.1,N
1650192335.5,286046999.2,N
1650192355.3,286046996.9,N
1650192375.2,286046995.0,N
1650192395.0,286046996.5,N
1650192395.9,286046996.5,N
1650192415.8,286046999.1,N
1650192435.6,286046998.6,N
1650192455.4,286047000.5,N
1650192475.3,286047002.8,N
1650192495.1,286047001.9,N
1650192515.8,286047002.1,N
1650192535.7,286046998.3,N
1650192555.5,286046996.7,N
1650192575.4,286046997.3,N
1650192595.2,286046997.6,N
1650192615.0,286046997.5,N
1650192615.9,286046997.5,N
1650192635.8,286046997.7,N
1650192655.6,286046997.4,N
1650192675.4,286046996.8,N
1650192695.3,286046995.3,N
1650192715.1,286046995.8,N
1650192735.9,286046995.6,N
1650192755.7,286046995.5,N
1650192775.5,286046996.1,N
1650192795.4,286046998.0,N
1650192815.2,286046997.0,N
1650192835.0,286046995.6,N
1650192835.9,286046995.6,N
1650192855.8,286046995.2,N
1650192875.6,286046995.7,N
1650192895.5,286046993.6,Y
1650192915.3,286046997.4,P
1650192935.1,286046995.0,P
1650192955.9,286046993.4,P
1650192975.7,286046994.1,Y
1650192995.5,286046998.2,P
1650193015.4,286046999.8,N
1650193035.2,286047001.9,N
1650193055.1,286047002.9,N
1650193056.0,286047002.9,N
1650193075.8,286047007.2,N
1650193095.6,286047007.4,N
1650193115.5,286047005.8,N
1650193135.3,286047003.0,N
1650193155.2,286047005.9,N
1650193175.9,286047006.0,N
1650193195.7,286047003.8,N
